GW4732 Weather Reports


time (UTC)temp
C
wind
direction
speed
KPH
gust
KPH
rain 1hr
cm
rain 24hr
cm
rain mn
cm
humidity
%
barometer
mb
20260504050335 7 256 1.6 3.2 0.00 0.00 0.00 57 1017.1
20260504045832 7 254 1.6 3.2 0.00 0.00 0.00 58 1017.3
20260504045331 7 274 3.2 3.2 0.00 0.00 0.00 60 1017.2
20260504044829 7 274 1.6 3.2 0.00 0.00 0.00 61 1017.3
20260504044326 7 278 1.6 3.2 0.00 0.00 0.00 62 1017.4
20260504043824 7 298 3.2 4.8 0.00 0.00 0.00 64 1017.4
20260504043320 7 219 4.8 4.8 0.00 0.00 0.00 63 1017.3
20260504042818 8 271 1.6 1.6 0.00 0.00 0.00 51 1017.2
20260504042314 8 271 1.6 3.2 0.00 0.00 0.00 53 1017.2
20260504041810 8 271 1.6 3.2 0.00 0.00 0.00 52 1017.0
20260504041306 8 271 1.6 1.6 0.00 0.00 0.00 55 1017.2
20260504040803 8 271 1.6 1.6 0.00 0.00 0.00 55 1017.1
20260504040300 8 271 1.6 3.2 0.00 0.00 0.00 53 1017.2
20260504035756 8 271 3.2 3.2 0.00 0.00 0.00 52 1017.3
20260504035254 9 267 3.2 4.8 0.00 0.00 0.00 52 1017.0
20260504034751 8 276 3.2 4.8 0.00 0.00 0.00 53 1017.1
20260504034248 8 266 3.2 4.8 0.00 0.00 0.00 53 1016.9
20260504033745 8 321 1.6 3.2 0.00 0.00 0.00 53 1017.0
20260504033243 8 264 1.6 1.6 0.00 0.00 0.00 55 1016.9
20260504032740 9 321 1.6 1.6 0.00 0.00 0.00 54 1017.1
20260504032237 9 238 1.6 3.2 0.00 0.00 0.00 50 1017.0
20260504031733 9 238 1.6 3.2 0.00 0.00 0.00 51 1017.0
20260504031231 9 238 3.2 3.2 0.00 0.00 0.00 52 1016.9
20260504030726 8 238 1.6 3.2 0.00 0.00 0.00 54 1016.9
20260504030224 8 238 1.6 3.2 0.00 0.00 0.00 57 1016.9
20260504025720 7 238 1.6 1.6 0.00 0.00 0.00 62 1016.7
20260504025217 7 237 1.6 3.2 0.00 0.00 0.00 65 1016.5
20260504024715 7 236 0.0 3.2 0.00 0.00 0.00 67 1016.5
20260504024211 9 245 1.6 3.2 0.00 0.00 0.00 50 1016.6
20260504023708 8 315 0.0 1.6 0.00 0.00 0.00 51 1016.4
20260504023203 8 316 1.6 3.2 0.00 0.00 0.00 51 1016.4
20260504022700 8 318 0.0 0.0 0.00 0.00 0.00 56 1016.4
20260504022156 8 318 1.6 3.2 0.00 0.00 0.00 54 1016.4
20260504021654 9 315 0.0 0.0 0.00 0.00 0.00 54 1016.4
20260504021150 9 315 0.0 0.0 0.00 0.00 0.00 48 1016.3
20260504020647 9 315 0.0 0.0 0.00 0.00 0.00 47 1016.3
20260504020143 9 315 0.0 0.0 0.00 0.00 0.00 49 1016.4
20260504015640 10 315 0.0 0.0 0.00 0.00 0.00 47 1016.2
20260504015136 9 315 0.0 3.2 0.00 0.00 0.00 48 1016.0
20260504014632 9 315 1.6 3.2 0.00 0.00 0.00 48 1016.2
20260504014130 9 316 0.0 0.0 0.00 0.00 0.00 53 1016.4
20260504013627 10 316 0.0 0.0 0.00 0.00 0.00 45 1016.3
20260504013124 10 316 0.0 0.0 0.00 0.00 0.00 46 1016.3
20260504012621 10 316 0.0 0.0 0.00 0.00 0.00 48 1016.2
20260504012120 9 316 0.0 1.6 0.00 0.00 0.00 46 1016.2
20260504011616 8 316 0.0 0.0 0.00 0.00 0.00 48 1016.1
20260504011112 9 316 0.0 0.0 0.00 0.00 0.00 48 1016.1
20260504010608 9 316 0.0 0.0 0.00 0.00 0.00 47 1016.0
20260504010104 10 316 0.0 0.0 0.00 0.00 0.00 53 1016.0
20260504005601 10 316 0.0 0.0 0.00 0.00 0.00 46 1016.1
20260504005058 10 316 0.0 0.0 0.00 0.00 0.00 46 1016.1
20260504004556 10 316 0.0 1.6 0.00 0.00 0.00 46 1015.8
20260504004053 10 316 0.0 1.6 0.00 0.00 0.00 48 1016.0
20260504003549 10 316 0.0 0.0 0.00 0.00 0.00 45 1015.9
20260504003046 10 316 0.0 0.0 0.00 0.00 0.00 44 1015.8
20260504002542 11 316 0.0 0.0 0.00 0.00 0.00 44 1015.9
20260504002040 11 316 0.0 0.0 0.00 0.00 0.00 41 1015.9
20260504001538 12 316 0.0 0.0 0.00 0.00 0.00 40 1015.8
20260504001034 12 316 0.0 1.6 0.00 0.00 0.00 37 1015.8
20260504000531 13 316 0.0 0.0 0.00 0.00 0.00 37 1015.7
20260504000028 13 351 1.6 1.6 0.00 0.00 0.00 36 1015.7
20260503235526 13 351 0.0 1.6 0.00 0.00 0.00 35 1015.6
20260503235023 14 351 0.0 1.6 0.00 0.00 0.00 35 1015.5
20260503234521 14 301 3.2 3.2 0.00 0.00 0.00 34 1015.5
20260503234019 14 354 3.2 3.2 0.00 0.00 0.00 34 1015.5
20260503233515 15 12 0.0 4.8 0.00 0.00 0.00 33 1015.5
20260503233011 15 12 3.2 4.8 0.00 0.00 0.00 32 1015.5
20260503232508 15 271 4.8 6.4 0.00 0.00 0.00 34 1015.5
20260503232006 15 342 0.0 1.6 0.00 0.00 0.00 34 1015.5
20260503231504 15 10 3.2 4.8 0.00 0.00 0.00 33 1015.4
20260503231000 15 277 3.2 3.2 0.00 0.00 0.00 32 1015.3
20260503230456 16 277 3.2 4.8 0.00 0.00 0.00 31 1015.3
20260503225954 16 355 1.6 3.2 0.00 0.00 0.00 31 1015.3
20260503225450 16 17 6.4 14.5 0.00 0.00 0.00 31 1015.2
20260503224946 16 15 6.4 12.9 0.00 0.00 0.00 30 1015.2
20260503224443 16 307 8.0 11.3 0.00 0.00 0.00 30 1015.2
20260503223941 16 311 1.6 3.2 0.00 0.00 0.00 31 1015.1
20260503223438 16 329 8.0 12.9 0.00 0.00 0.00 29 1015.3
20260503222934 16 297 1.6 6.4 0.00 0.00 0.00 32 1015.4
20260503222433 17 338 12.9 16.1 0.00 0.00 0.00 31 1015.2
20260503221931 16 279 1.6 6.4 0.00 0.00 0.00 29 1015.3
20260503221429 16 358 12.9 17.7 0.00 0.00 0.00 31 1015.5
20260503220925 16 350 8.0 11.3 0.00 0.00 0.00 31 1015.6
20260503220421 17 266 4.8 9.7 0.00 0.00 0.00 30 1015.6
20260503215919 16 232 0.0 6.4 0.00 0.00 0.00 29 1015.5
20260503215415 17 324 3.2 11.3 0.00 0.00 0.00 32 1015.4
20260503214913 17 323 3.2 9.7 0.00 0.00 0.00 35 1015.4
20260503214410 16 7 8.0 9.7 0.00 0.00 0.00 29 1015.6
20260503213908 16 7 11.3 20.9 0.00 0.00 0.00 29 1015.5
20260503213406 16 346 3.2 9.7 0.00 0.00 0.00 30 1015.5
20260503212902 17 27 8.0 14.5 0.00 0.00 0.00 31 1015.4
20260503212400 16 323 9.7 20.9 0.00 0.00 0.00 33 1015.5
20260503211857 16 350 4.8 12.9 0.00 0.00 0.00 32 1015.5
20260503211353 16 348 8.0 16.1 0.00 0.00 0.00 32 1015.5
20260503210848 17 316 3.2 20.9 0.00 0.00 0.00 32 1015.6
20260503210346 16 296 4.8 6.4 0.00 0.00 0.00 30 1015.5
20260503205841 16 301 9.7 14.5 0.00 0.00 0.00 34 1015.5
20260503205338 16 338 11.3 12.9 0.00 0.00 0.00 30 1015.5
20260503204834 16 328 11.3 22.5 0.00 0.00 0.00 32 1015.4
20260503204332 16 258 6.4 12.9 0.00 0.00 0.00 30 1015.5
20260503203829 16 1 6.4 22.5 0.00 0.00 0.00 32 1015.5
20260503203326 16 320 17.7 20.9 0.00 0.00 0.00 30 1015.5
20260503202823 17 261 6.4 16.1 0.00 0.00 0.00 29 1015.6
20260503202321 15 258 6.4 9.7 0.00 0.00 0.00 31 1015.7
20260503201819 16 305 3.2 11.3 0.00 0.00 0.00 34 1015.8
20260503201316 16 279 6.4 14.5 0.00 0.00 0.00 34 1015.7
20260503200813 16 16 3.2 16.1 0.00 0.00 0.00 32 1015.9
20260503200309 16 13 9.7 12.9 0.00 0.00 0.00 32 1015.8
20260503195807 15 352 11.3 16.1 0.00 0.00 0.00 32 1016.0
20260503195304 16 21 3.2 16.1 0.00 0.00 0.00 32 1016.1
20260503194800 16 318 9.7 12.9 0.00 0.00 0.00 29 1016.4
20260503194256 16 317 4.8 11.3 0.00 0.00 0.00 29 1016.4
20260503193752 16 326 9.7 17.7 0.00 0.00 0.00 30 1016.6
20260503193249 16 6 6.4 17.7 0.00 0.00 0.00 32 1016.1
20260503192744 15 311 9.7 12.9 0.00 0.00 0.00 30 1016.3
20260503192239 16 326 6.4 12.9 0.00 0.00 0.00 35 1016.6
20260503191737 16 342 14.5 22.5 0.00 0.00 0.00 30 1016.7
20260503191234 16 24 9.7 16.1 0.00 0.00 0.00 32 1016.6
20260503190731 15 101 3.2 12.9 0.00 0.00 0.00 33 1016.7
20260503190227 16 339 4.8 12.9 0.00 0.00 0.00 38 1016.6
20260503185725 15 319 6.4 22.5 0.00 0.00 0.00 30 1016.6
20260503185220 15 309 9.7 16.1 0.00 0.00 0.00 33 1017.1
20260503184715 15 344 9.7 16.1 0.00 0.00 0.00 31 1017.0
20260503184211 14 337 11.3 17.7 0.00 0.00 0.00 33 1017.2
20260503183708 14 290 14.5 16.1 0.00 0.00 0.00 36 1017.1
20260503183205 15 19 11.3 16.1 0.00 0.00 0.00 32 1017.1
20260503182704 15 355 11.3 17.7 0.00 0.00 0.00 35 1017.2
20260503182202 14 259 11.3 20.9 0.00 0.00 0.00 34 1017.0
20260503181658 15 354 4.8 14.5 0.00 0.00 0.00 36 1017.2
20260503181155 14 135 1.6 11.3 0.00 0.00 0.00 40 1017.3
20260503180651 14 20 6.4 14.5 0.00 0.00 0.00 33 1017.2
20260503180150 14 11 11.3 20.9 0.00 0.00 0.00 36 1017.4
20260503175646 13 358 9.7 12.9 0.00 0.00 0.00 36 1017.5
20260503175144 14 353 11.3 20.9 0.00 0.00 0.00 35 1017.5
20260503174640 14 266 1.6 6.4 0.00 0.00 0.00 38 1017.5
20260503174137 13 32 3.2 12.9 0.00 0.00 0.00 34 1017.5
20260503173632 14 21 22.5 24.1 0.00 0.00 0.00 34 1017.7
20260503173129 14 337 20.9 24.1 0.00 0.00 0.00 38 1017.7
20260503172626 13 316 3.2 14.5 0.00 0.00 0.00 37 1017.7
20260503172124 13 338 4.8 16.1 0.00 0.00 0.00 37 1017.8
20260503171620 13 28 17.7 22.5 0.00 0.00 0.00 36 1017.8
20260503171117 13 7 16.1 25.7 0.00 0.00 0.00 37 1017.9
20260503170614 13 24 8.0 16.1 0.00 0.00 0.00 38 1017.9
20260503170110 13 41 6.4 16.1 0.00 0.00 0.00 37 1018.1
20260503151006 10 355 12.9 22.5 0.00 0.00 0.00 45 1019.1
20260503150502 10 356 16.1 25.7 0.00 0.00 0.00 46 1019.0
20260503131355 8 326 9.7 17.7 0.00 0.00 0.00 55 1019.2
20260503130853 8 358 16.1 20.9 0.00 0.00 0.00 57 1019.4
20260503130350 7 13 4.8 14.5 0.00 0.00 0.00 56 1019.3
20260503110750 5 356 3.2 3.2 0.00 0.00 0.00 65 1018.4
20260503110247 5 356 1.6 3.2 0.00 0.00 0.00 66 1018.4
20260503100213 3 343 0.0 1.6 0.00 0.00 0.00 72 1017.7
20260503090137 3 286 1.6 4.8 0.00 0.00 0.00 71 1017.2
20260503081608 4 344 0.0 1.6 0.00 0.00 0.00 74 1017.1
20260503081105 4 352 3.2 4.8 0.00 0.00 0.00 74 1017.0
20260503080600 5 351 1.6 3.2 0.00 0.00 0.00 75 1017.1
20260503072539 5 308 0.0 1.6 0.00 0.00 0.00 75 1016.5
20260503072037 5 288 0.0 1.6 0.00 0.00 0.00 75 1016.4
20260503071533 5 287 0.0 3.2 0.00 0.00 0.00 75 1016.3
20260503071030 5 287 0.0 1.6 0.00 0.00 0.00 74 1016.4
20260503070526 5 287 0.0 1.6 0.00 0.00 0.00 73 1016.4